Time,TemperatureF,DewpointF,PressureIn,WindDirection,WindDirectionDegrees,WindSpeedMPH,WindSpeedGustMPH,Humidity,HourlyPrecipIn,Conditions,Clouds,dailyrainin,SoftwareType,DateUTC
2013-08-05 00:00:00,62.0,56.0,29.98,NNE,19,2.0,3.0,81,0.00,,,-99.99,,2013-08-05 04:00:00,
2013-08-05 00:32:00,62.0,56.0,29.98,NNE,19,2.0,3.0,81,0.00,,,-99.99,,2013-08-05 04:32:00,
2013-08-05 00:43:00,62.0,56.0,29.98,NNE,19,2.0,3.0,81,0.00,,,-99.99,,2013-08-05 04:43:00,
2013-08-05 00:52:00,62.0,56.0,29.98,NNE,19,2.0,3.0,81,0.00,,,-99.99,,2013-08-05 04:52:00,
2013-08-05 01:00:00,63.0,53.0,30.00,NNW,347,2.0,8.0,71,0.00,,,-99.99,,2013-08-05 05:00:00,
2013-08-05 01:32:00,63.0,53.0,30.00,NNW,347,2.0,8.0,71,0.00,,,-99.99,,2013-08-05 05:32:00,
2013-08-05 01:43:00,63.0,53.0,30.00,NNW,347,2.0,8.0,71,0.00,,,-99.99,,2013-08-05 05:43:00,
2013-08-05 01:53:00,63.0,53.0,30.00,NNW,347,2.0,8.0,71,0.00,,,-99.99,,2013-08-05 05:53:00,
2013-08-05 02:00:00,57.0,53.0,30.00,West,263,0.0,1.0,87,0.00,,,-99.99,,2013-08-05 06:00:00,
2013-08-05 02:32:00,57.0,53.0,30.00,West,263,0.0,1.0,87,0.00,,,-99.99,,2013-08-05 06:32:00,
2013-08-05 02:43:00,57.0,53.0,30.00,West,263,0.0,1.0,87,0.00,,,-99.99,,2013-08-05 06:43:00,
2013-08-05 02:52:00,57.0,53.0,30.00,West,263,0.0,1.0,87,0.00,,,-99.99,,2013-08-05 06:52:00,
2013-08-05 03:00:00,55.0,52.0,30.01,SW,227,0.0,2.0,90,0.00,,,-99.99,,2013-08-05 07:00:00,
2013-08-05 03:32:00,55.0,52.0,30.01,SW,227,0.0,2.0,90,0.00,,,-99.99,,2013-08-05 07:32:00,
2013-08-05 03:43:00,55.0,52.0,30.01,SW,227,0.0,2.0,90,0.00,,,-99.99,,2013-08-05 07:43:00,
2013-08-05 03:53:00,55.0,52.0,30.01,SW,227,0.0,2.0,90,0.00,,,-99.99,,2013-08-05 07:53:00,
2013-08-05 04:00:00,54.0,52.0,30.01,NNE,29,0.0,0.0,92,0.00,,,-99.99,,2013-08-05 08:00:00,
2013-08-05 04:34:00,54.0,52.0,30.01,NNE,29,0.0,0.0,92,0.00,,,-99.99,,2013-08-05 08:34:00,
2013-08-05 04:53:00,54.0,52.0,30.01,NNE,29,0.0,0.0,92,0.00,,,-99.99,,2013-08-05 08:53:00,
2013-08-05 05:49:00,56.0,52.0,30.02,WNW,295,0.0,3.0,86,0.00,,,-99.99,,2013-08-05 09:49:00,
2013-08-05 06:00:00,53.0,51.0,30.03,NE,45,0.0,2.0,92,0.00,,,-99.99,,2013-08-05 10:00:00,
2013-08-05 06:37:00,53.0,51.0,30.03,NE,45,0.0,2.0,92,0.00,,,-99.99,,2013-08-05 10:37:00,
2013-08-05 06:50:00,53.0,51.0,30.03,NE,45,0.0,2.0,92,0.00,,,-99.99,,2013-08-05 10:50:00,
2013-08-05 07:00:00,58.0,53.0,30.05,NW,317,0.0,-999.0,85,-99.99,,,-99.99,,2013-08-05 11:00:00,
2013-08-05 07:38:00,58.0,53.0,30.05,NW,317,0.0,-999.0,85,-99.99,,,-99.99,,2013-08-05 11:38:00,
2013-08-05 07:54:00,58.0,53.0,30.05,NW,317,0.0,-999.0,85,-99.99,,,-99.99,,2013-08-05 11:54:00,
2013-08-05 09:00:00,68.0,53.0,30.06,NNW,333,7.0,13.0,60,0.00,,,-99.99,,2013-08-05 13:00:00,
2013-08-05 09:40:00,68.0,53.0,30.06,NNW,333,7.0,13.0,60,0.00,,,-99.99,,2013-08-05 13:40:00,
2013-08-05 09:47:00,68.0,53.0,30.06,NNW,333,7.0,13.0,60,0.00,,,-99.99,,2013-08-05 13:47:00,
2013-08-05 09:54:00,68.0,53.0,30.06,NNW,333,7.0,13.0,60,0.00,,,-99.99,,2013-08-05 13:54:00,
2013-08-05 10:00:00,70.0,52.0,30.06,NNE,13,3.0,11.0,53,0.00,,,-99.99,,2013-08-05 14:00:00,
2013-08-05 10:42:00,70.0,52.0,30.06,NNE,13,3.0,11.0,53,0.00,,,-99.99,,2013-08-05 14:42:00,
2013-08-05 10:49:00,70.0,52.0,30.06,NNE,13,3.0,11.0,53,0.00,,,-99.99,,2013-08-05 14:49:00,
2013-08-05 11:40:00,73.0,49.0,30.06,NW,304,6.0,11.0,43,0.00,,,-99.99,,2013-08-05 15:40:00,
2013-08-05 11:51:00,73.0,49.0,30.06,NW,304,6.0,11.0,43,0.00,,,-99.99,,2013-08-05 15:51:00,
2013-08-05 11:59:00,73.0,49.0,30.06,NW,304,6.0,11.0,43,0.00,,,-99.99,,2013-08-05 15:59:00,
2013-08-05 12:00:00,75.0,50.0,30.05,WNW,295,1.0,14.0,41,0.00,,,-99.99,,2013-08-05 16:00:00,
2013-08-05 12:34:00,75.0,50.0,30.05,WNW,295,1.0,14.0,41,0.00,,,-99.99,,2013-08-05 16:34:00,
2013-08-05 12:45:00,75.0,50.0,30.05,WNW,295,1.0,14.0,41,0.00,,,-99.99,,2013-08-05 16:45:00,
2013-08-05 13:00:00,76.0,48.0,30.04,NNE,18,3.0,16.0,38,0.00,,,-99.99,,2013-08-05 17:00:00,
2013-08-05 13:39:00,76.0,48.0,30.04,NNE,18,3.0,16.0,38,0.00,,,-99.99,,2013-08-05 17:39:00,
2013-08-05 13:49:00,76.0,48.0,30.04,NNE,18,3.0,16.0,38,0.00,,,-99.99,,2013-08-05 17:49:00,
2013-08-05 14:00:00,77.0,46.0,30.03,NW,312,3.0,13.0,33,0.00,,,-99.99,,2013-08-05 18:00:00,
2013-08-05 14:40:00,77.0,46.0,30.03,NW,312,3.0,13.0,33,0.00,,,-99.99,,2013-08-05 18:40:00,
2013-08-05 14:54:00,77.0,46.0,30.03,NW,312,3.0,13.0,33,0.00,,,-99.99,,2013-08-05 18:54:00,
2013-08-05 15:00:00,77.0,42.0,30.01,NE,37,0.0,-999.0,28,-99.99,,,-99.99,,2013-08-05 19:00:00,
2013-08-05 15:39:00,77.0,42.0,30.01,NE,37,0.0,-999.0,28,-99.99,,,-99.99,,2013-08-05 19:39:00,
2013-08-05 15:54:00,77.0,42.0,30.01,NE,37,0.0,-999.0,28,-99.99,,,-99.99,,2013-08-05 19:54:00,
2013-08-05 16:00:00,78.0,45.0,30.00,NNW,341,6.0,12.0,31,0.00,,,-99.99,,2013-08-05 20:00:00,
2013-08-05 16:48:00,78.0,45.0,30.00,NNW,341,6.0,12.0,31,0.00,,,-99.99,,2013-08-05 20:48:00,
2013-08-05 17:00:00,77.0,45.0,30.00,NNW,337,3.0,10.0,32,0.00,,,-99.99,,2013-08-05 21:00:00,
2013-08-05 17:48:00,77.0,45.0,30.00,NNW,337,3.0,10.0,32,0.00,,,-99.99,,2013-08-05 21:48:00,
2013-08-05 17:54:00,77.0,45.0,30.00,NNW,337,3.0,10.0,32,0.00,,,-99.99,,2013-08-05 21:54:00,
2013-08-05 18:00:00,77.0,46.0,30.01,NW,326,0.0,8.0,33,0.00,,,-99.99,,2013-08-05 22:00:00,
2013-08-05 18:38:00,77.0,46.0,30.01,NW,326,0.0,8.0,33,0.00,,,-99.99,,2013-08-05 22:38:00,
2013-08-05 18:45:00,77.0,46.0,30.01,NW,326,0.0,8.0,33,0.00,,,-99.99,,2013-08-05 22:45:00,
2013-08-05 18:53:00,77.0,46.0,30.01,NW,326,0.0,8.0,33,0.00,,,-99.99,,2013-08-05 22:53:00,
2013-08-05 19:00:00,75.0,51.0,30.02,NE,55,0.0,6.0,44,0.00,,,-99.99,,2013-08-05 23:00:00,
2013-08-05 19:33:00,75.0,51.0,30.02,NE,55,0.0,6.0,44,0.00,,,-99.99,,2013-08-05 23:33:00,
2013-08-05 19:46:00,75.0,51.0,30.02,NE,55,0.0,6.0,44,0.00,,,-99.99,,2013-08-05 23:46:00,
2013-08-05 20:00:00,66.0,58.0,30.03,SSW,199,0.0,0.0,75,0.00,,,-99.99,,2013-08-06 00:00:00,
2013-08-05 20:37:00,66.0,58.0,30.03,SSW,199,0.0,0.0,75,0.00,,,-99.99,,2013-08-06 00:37:00,
2013-08-05 20:47:00,66.0,58.0,30.03,SSW,199,0.0,0.0,75,0.00,,,-99.99,,2013-08-06 00:47:00,
2013-08-05 20:57:00,66.0,58.0,30.03,SSW,199,0.0,0.0,75,0.00,,,-99.99,,2013-08-06 00:57:00,
2013-08-05 21:00:00,63.0,57.0,30.06,SW,216,0.0,0.0,81,0.00,,,-99.99,,2013-08-06 01:00:00,
2013-08-05 21:43:00,63.0,57.0,30.06,SW,216,0.0,0.0,81,0.00,,,-99.99,,2013-08-06 01:43:00,
2013-08-05 21:53:00,63.0,57.0,30.06,SW,216,0.0,0.0,81,0.00,,,-99.99,,2013-08-06 01:53:00,
2013-08-05 22:00:00,61.0,57.0,30.05,West,264,0.0,0.0,88,0.00,,,-99.99,,2013-08-06 02:00:00,
2013-08-05 22:33:00,61.0,57.0,30.05,West,264,0.0,0.0,88,0.00,,,-99.99,,2013-08-06 02:33:00,
2013-08-05 22:50:00,61.0,57.0,30.05,West,264,0.0,0.0,88,0.00,,,-99.99,,2013-08-06 02:50:00,
2013-08-05 23:00:00,59.0,56.0,30.04,SE,146,0.0,0.0,90,0.00,,,-99.99,,2013-08-06 03:00:00,
2013-08-05 23:35:00,59.0,56.0,30.04,SE,146,0.0,0.0,90,0.00,,,-99.99,,2013-08-06 03:35:00,
2013-08-05 23:45:00,59.0,56.0,30.04,SE,146,0.0,0.0,90,0.00,,,-99.99,,2013-08-06 03:45:00,
2013-08-05 23:52:00,59.0,56.0,30.04,SE,146,0.0,0.0,90,0.00,,,-99.99,,2013-08-06 03:52:00,